• In Hungary
  • List of Countries
  • For 7 days
  • Water Temperature
  • Satellite Maps
  • Weather Map
  • News
  • Weather Widgets
  • user-avatar
    Login

    Hourly Weather Madmas

    Today, 19 July, Thursday

    Time Temperature Precipitation Wind Pressure Humidity
    00:00 +17°C° 0 mm 4 mps 756 mmHg 67%
    01:00 +17°C° 0 mm 4 mps 756 mmHg 69%
    02:00 +16°C° 0 mm 3 mps 756 mmHg 71%
    03:00 +14°C° 0 mm 3 mps 756 mmHg 73%
    04:00 +16°C° 0 mm 3 mps 756 mmHg 71%
    05:00 +16°C° 0 mm 3 mps 756 mmHg 69%
    06:00 +17°C° 0 mm 3 mps 756 mmHg 67%
    07:00 +19°C° 0 mm 3 mps 756 mmHg 62%
    08:00 +21°C° 0 mm 4 mps 756 mmHg 57%
    09:00 +23°C° 0 mm 4 mps 756 mmHg 52%
    10:00 +26°C° 0 mm 4 mps 756 mmHg 48%
    11:00 +27°C° 0 mm 4 mps 756 mmHg 45%
    12:00 +29°C° 0 mm 4 mps 756 mmHg 41%
    13:00 +29°C° 0 mm 4 mps 756 mmHg 40%
    14:00 +30°C° 0 mm 4 mps 756 mmHg 39%
    15:00 +30°C° 0 mm 4 mps 756 mmHg 38%
    16:00 +29°C° 0 mm 3 mps 756 mmHg 41%
    17:00 +29°C° 0 mm 3 mps 756 mmHg 43%
    18:00 +28°C° 0 mm 3 mps 756 mmHg 45%
    19:00 +26°C° 0 mm 3 mps 756 mmHg 51%
    20:00 +24°C° 0 mm 3 mps 756 mmHg 57%
    21:00 +21°C° 0 mm 2 mps 756 mmHg 63%
    22:00 +20°C° 0 mm 2 mps 757 mmHg 66%
    23:00 +19°C° 0 mm 2 mps 757 mmHg 69%

    Tomorrow, 20 July, Friday

    Time Temperature Precipitation Wind Pressure Humidity
    00:00 +18°C° 0 mm 2 mps 757 mmHg 72%
    01:00 +18°C° 0 mm 2 mps 757 mmHg 74%
    02:00 +17°C° 0 mm 2 mps 757 mmHg 76%
    03:00 +17°C° 0 mm 2 mps 757 mmHg 77%
    04:00 +18°C° 0 mm 2 mps 757 mmHg 73%
    05:00 +19°C° 0 mm 3 mps 758 mmHg 69%
    06:00 +20°C° 0 mm 3 mps 758 mmHg 65%
    07:00 +22°C° 0 mm 3 mps 758 mmHg 60%
    08:00 +25°C° 0 mm 4 mps 758 mmHg 54%
    09:00 +27°C° 0 mm 4 mps 758 mmHg 48%
    10:00 +28°C° 0 mm 4 mps 758 mmHg 45%
    11:00 +29°C° 0 mm 4 mps 758 mmHg 41%
    12:00 +29°C° 0 mm 4 mps 758 mmHg 38%
    13:00 +30°C° 0 mm 4 mps 757 mmHg 37%
    14:00 +30°C° 0 mm 4 mps 757 mmHg 37%
    15:00 +30°C° 0 mm 4 mps 757 mmHg 37%
    16:00 +29°C° 0 mm 3 mps 757 mmHg 39%
    17:00 +29°C° 0 mm 3 mps 757 mmHg 42%
    18:00 +28°C° 0 mm 3 mps 757 mmHg 45%
    19:00 +26°C° 0 mm 3 mps 757 mmHg 52%
    20:00 +24°C° 0 mm 2 mps 757 mmHg 58%
    21:00 +21°C° 0 mm 2 mps 758 mmHg 65%
    22:00 +20°C° 0 mm 2 mps 758 mmHg 67%
    23:00 +19°C° 0 mm 2 mps 758 mmHg 70%

    Day after tomorrow, 21 July, Saturday

    Time Temperature Precipitation Wind Pressure Humidity
    00:00 +18°C° 0 mm 2 mps 758 mmHg 72%
    01:00 +17°C° 0 mm 2 mps 758 mmHg 74%
    02:00 +17°C° 0 mm 2 mps 759 mmHg 77%
    03:00 +16°C° 0 mm 2 mps 759 mmHg 79%
    04:00 +17°C° 0 mm 2 mps 759 mmHg 75%
    05:00 +18°C° 0 mm 2 mps 759 mmHg 71%
    06:00 +20°C° 0 mm 3 mps 759 mmHg 66%
    07:00 +21°C° 0 mm 3 mps 759 mmHg 59%
    08:00 +23°C° 0 mm 4 mps 759 mmHg 51%
    09:00 +26°C° 0 mm 4 mps 759 mmHg 43%
    10:00 +26°C° 0 mm 4 mps 759 mmHg 41%
    11:00 +27°C° 0 mm 4 mps 759 mmHg 38%
    12:00 +28°C° 0 mm 4 mps 759 mmHg 36%
    13:00 +28°C° 0 mm 4 mps 758 mmHg 36%
    14:00 +28°C° 0 mm 4 mps 758 mmHg 35%
    15:00 +29°C° 0 mm 4 mps 758 mmHg 35%
    16:00 +28°C° 0 mm 4 mps 758 mmHg 37%
    17:00 +28°C° 0 mm 3 mps 758 mmHg 40%
    18:00 +27°C° 0 mm 3 mps 758 mmHg 43%
    19:00 +25°C° 0 mm 3 mps 758 mmHg 49%
    20:00 +23°C° 0 mm 2 mps 758 mmHg 56%
    21:00 +19°C° 0 mm 2 mps 758 mmHg 63%
    22:00 +18°C° 0 mm 2 mps 758 mmHg 66%
    23:00 +17°C° 0 mm 2 mps 758 mmHg 68%

    22 July, Sunday

    Time Temperature Precipitation Wind Pressure Humidity
    00:00 +16°C° 0 mm 2 mps 758 mmHg 71%
    01:00 +16°C° 0 mm 2 mps 759 mmHg 73%
    02:00 +15°C° 0 mm 2 mps 759 mmHg 75%
    03:00 +14°C° 0 mm 2 mps 759 mmHg 77%
    04:00 +16°C° 0 mm 2 mps 759 mmHg 72%
    05:00 +17°C° 0 mm 2 mps 759 mmHg 67%
    06:00 +18°C° 0 mm 3 mps 759 mmHg 61%
    07:00 +20°C° 0 mm 3 mps 759 mmHg 54%
    08:00 +22°C° 0 mm 3 mps 759 mmHg 47%
    09:00 +25°C° 0 mm 4 mps 759 mmHg 39%
    10:00 +26°C° 0 mm 4 mps 759 mmHg 37%
    11:00 +27°C° 0 mm 4 mps 759 mmHg 35%
    12:00 +27°C° 0 mm 4 mps 758 mmHg 33%
    13:00 +28°C° 0 mm 4 mps 758 mmHg 32%
    14:00 +28°C° 0 mm 4 mps 758 mmHg 32%
    15:00 +28°C° 0 mm 4 mps 758 mmHg 31%
    16:00 +28°C° 0 mm 3 mps 758 mmHg 34%
    17:00 +27°C° 0 mm 3 mps 758 mmHg 37%
    18:00 +26°C° 0 mm 2 mps 757 mmHg 40%
    19:00 +24°C° 0 mm 2 mps 758 mmHg 47%
    20:00 +21°C° 0 mm 2 mps 758 mmHg 54%
    21:00 +18°C° 0 mm 2 mps 758 mmHg 61%
    22:00 +17°C° 0 mm 2 mps 758 mmHg 63%
    23:00 +16°C° 0 mm 2 mps 758 mmHg 66%

    23 July, Monday

    Time Temperature Precipitation Wind Pressure Humidity
    00:00 +15°C° 0 mm 2 mps 759 mmHg 68%
    01:00 +15°C° 0 mm 2 mps 759 mmHg 70%
    02:00 +14°C° 0 mm 2 mps 759 mmHg 72%
    03:00 +13°C° 0 mm 2 mps 759 mmHg 73%
    04:00 +15°C° 0 mm 2 mps 759 mmHg 69%
    05:00 +16°C° 0 mm 2 mps 759 mmHg 64%
    06:00 +18°C° 0 mm 2 mps 759 mmHg 60%
    07:00 +20°C° 0 mm 2 mps 759 mmHg 53%
    08:00 +22°C° 0 mm 3 mps 759 mmHg 46%
    09:00 +25°C° 0 mm 3 mps 759 mmHg 38%
    10:00 +26°C° 0 mm 3 mps 759 mmHg 36%
    11:00 +27°C° 0 mm 3 mps 759 mmHg 33%
    12:00 +28°C° 0 mm 4 mps 759 mmHg 31%
    13:00 +28°C° 0 mm 3 mps 758 mmHg 30%
    14:00 +29°C° 0 mm 3 mps 758 mmHg 30%
    15:00 +29°C° 0 mm 3 mps 758 mmHg 30%
    16:00 +28°C° 0 mm 3 mps 758 mmHg 33%
    17:00 +28°C° 0 mm 2 mps 758 mmHg 37%
    18:00 +27°C° 0 mm 2 mps 758 mmHg 41%
    19:00 +25°C° 0 mm 2 mps 758 mmHg 48%
    20:00 +21°C° 0 mm 2 mps 758 mmHg 55%
    21:00 +20°C° 0 mm 1 mps 758 mmHg 62%
    22:00 +19°C° 0 mm 1 mps 758 mmHg 65%
    23:00 +18°C° 0 mm 1 mps 759 mmHg 68%

    24 July, Tuesday

    Time Temperature Precipitation Wind Pressure Humidity
    00:00 +16°C° 0 mm 1 mps 759 mmHg 71%
    01:00 +15°C° 0 mm 1 mps 759 mmHg 73%
    02:00 +15°C° 0 mm 1 mps 759 mmHg 76%
    03:00 +14°C° 0 mm 1 mps 759 mmHg 79%
    04:00 +16°C° 0 mm 1 mps 760 mmHg 74%
    05:00 +18°C° 0 mm 1 mps 760 mmHg 69%
    06:00 +20°C° 0 mm 1 mps 760 mmHg 63%
    07:00 +21°C° 0 mm 2 mps 760 mmHg 56%
    08:00 +24°C° 0 mm 2 mps 760 mmHg 49%
    09:00 +26°C° 0 mm 3 mps 760 mmHg 42%
    10:00 +27°C° 0 mm 3 mps 760 mmHg 39%
    11:00 +28°C° 0 mm 3 mps 760 mmHg 37%
    12:00 +29°C° 0 mm 3 mps 759 mmHg 34%
    13:00 +29°C° 0 mm 3 mps 759 mmHg 33%
    14:00 +30°C° 0 mm 3 mps 759 mmHg 33%
    15:00 +30°C° 0 mm 3 mps 759 mmHg 32%
    16:00 +29°C° 0 mm 3 mps 759 mmHg 37%
    17:00 +29°C° 0 mm 2 mps 758 mmHg 41%
    18:00 +28°C° 0 mm 2 mps 758 mmHg 45%
    19:00 +26°C° 0 mm 1 mps 758 mmHg 53%
    20:00 +24°C° 0 mm 1 mps 759 mmHg 60%
    21:00 +21°C° 0 mm 1 mps 759 mmHg 68%
    22:00 +20°C° 0 mm 1 mps 759 mmHg 71%
    23:00 +20°C° 0 mm 1 mps 759 mmHg 75%
    Show more